Regional Weather Roundup
Issued by NWS Memphis, TN

Home | Current Version | Previous Version | Text Only | Print | Product List | Glossary On
Versions: 1 2 3 4 5 6 7 8 9 10 11 12 13 14 15 16 17 18 19 20 21 22 23 24 25 26 27 28 29 30 31 32 33 34 35 36 37 38 39 40 41 42 43 44 45 46 47 48 49 50
000
ASUS44 KMEG 042310
RWRMEG
MEMPHIS CWA HOURLY WEATHER ROUNDUP
NATIONAL WEATHER SERVICE MEMPHIS TN
600 PM CDT MON MAY 04 2015

...WEST TENNESSEE...

CITY           SKY/WX    TMP DP  RH WIND       PRES   REMARKS
MEMPHIS INTL   MOSUNNY   82  49  31 S10       30.15F
NWS MEMPHIS      N/A     84 N/A N/A MISG        N/A
JACKSON        SUNNY     81  51  35 S6        30.17S
LEXINGTON      MOSUNNY   81  48  32 SW12      30.17S
DYERSBURG      SUNNY     82  46  28 S5G17     30.16R
PARIS          SUNNY     79  54  41 S7        30.17S


...EASTERN ARKANSAS...

CITY           SKY/WX    TMP DP  RH WIND       PRES   REMARKS
JONESBORO      SUNNY     80  55  42 SW16      30.12R
WEST MEMPHIS   SUNNY     81  47  30 S12       30.13F
BATESVILLE     SUNNY     81  57  44 S6        30.12S
NEWPORT        SUNNY     83  55  37 S12G17    30.12S
WALNUT RIDGE   SUNNY     82  54  36 S16       30.11S
BLYTHEVILLE    MOSUNNY   83  53  35 S13       30.14R
SEARCY         SUNNY     82  58  43 S12       30.12F
STUTTGART      SUNNY     82  52  34 SE9       30.13S
PINE BLUFF     MOSUNNY   80  55  42 SE7       30.11F
MONTICELLO     SUNNY     82  51  34 S7        30.12S


...NORTH MISSISSIPPI...

CITY           SKY/WX    TMP DP  RH WIND       PRES   REMARKS
TUPELO         SUNNY     82  51  34 SW9       30.17F
OXFORD         LGT RAIN  79  54  41 SE8       30.18S
OLIVE BRANCH   MOSUNNY   81  54  39 S9        30.16S
TUNICA         SUNNY     82  50  32 S9        30.14S
CLARKSDALE     MOSUNNY   82  54  36 SE14      30.14S
CORINTH        SUNNY     81  54  39 S7        30.17S
GREENWOOD      PTSUNNY   81  58  45 SE9       30.15S
COLUMBUS       SUNNY     86  51  30 SE10      30.17F
STARKVILLE     FAIR      81  52  36 SE5       30.17S
GOLDEN TRIANGL PTSUNNY   82  52  34 S7        30.17F


...SOUTHEAST MISSOURI...

CITY           SKY/WX    TMP DP  RH WIND       PRES   REMARKS
WEST PLAINS    MOSUNNY   79  53  40 S9        30.12S
POPLAR BLUFF   SUNNY     82  53  36 S13       30.09S
CAPE GIRARDEAU MOSUNNY   82  54  37 S13       30.10S


...NORTHWEST ALABAMA...

CITY           SKY/WX    TMP DP  RH WIND       PRES   REMARKS
MUSCLE SHOALS  MOSUNNY   81  52  36 SE7       30.20S


...MIDDLE TENNESSEE...

CITY           SKY/WX    TMP DP  RH WIND       PRES   REMARKS
NASHVILLE      PTSUNNY   81  51  35 S9        30.19S
CLARKSVILLE    MOSUNNY   80  54  40 S9        30.17S
COLUMBIA       SUNNY     81  55  41 SW6       30.18F


...WESTERN KENTUCKY...

CITY           SKY/WX    TMP DP  RH WIND       PRES   REMARKS
PADUCAH        SUNNY     82  54  37 S8        30.12S
FORT CAMPBELL  MOSUNNY   81  55  41 SW8       30.17S


...CENTRAL ARKANSAS...

CITY           SKY/WX    TMP DP  RH WIND       PRES   REMARKS
LITTLE ROCK    MOSUNNY   81  55  40 S7        30.11F


SKY/WX REPORTED AS FAIR MEANS FEW OR NO CLOUDS BELOW
12 THOUSAND FEET.




USA.gov is the U.S. government's official web portal to all federal, state and local government web resources and services.